Powrót do katalogu

SL-8 R/B

AktywnyLEO
NORAD 18945·ROCKET BODY·🇷🇺 Russia

Wystrzelony Mar 11, 1988 z Plesetsk Cosmodrome

Loading…

Następne Przeloty (najbliższe 24 godziny)

TLE

ŚwieżeSource: Space-Track

Epoka: Sep 14, 2026, 06:56 UTC

1 18945U 88016J   26257.28945045  .00000028  00000-0  38526-3 0  9996
2 18945  74.0125 356.3651 0140650 328.9562  56.7998 12.24056310720825

Śledź SL-8 R/B w czasie rzeczywistym z AllMySat

Download on the App Store